Location: Cactus School
(34.5700°N, 118.0931°W)
Time: 06:07:33
(UTC-08:00)

Altair - All Passes

Search period start: 18 November 2019 00:00
Search period end: 28 November 2019 00:00
Orbit: 1502 x 1682 km, 47.2° (Epoch: 17 November)

Date Brightness Start Highest point End Pass type
(mag) Time Alt. Az. Time Alt. Az. Time Alt. Az.
18 Nov - 00:11:19 10° S 00:17:39 21° SE 00:23:55 10° E night (unlit)
18 Nov - 02:12:04 10° SW 02:21:16 79° SE 02:30:28 10° NE visible
18 Nov - 04:17:50 10° W 04:26:33 46° NNW 04:35:23 10° NE visible
18 Nov - 06:24:43 10° WNW 06:33:11 38° N 06:41:51 10° ENE daylight
18 Nov - 08:29:57 10° NW 08:39:16 69° NNE 08:48:53 10° ESE daylight
18 Nov - 10:35:01 10° WNW 10:43:42 42° SW 10:52:41 10° SSE daylight
18 Nov - 23:46:50 10° SSE 23:52:36 18° SE 23:58:19 10° E night (unlit)
19 Nov - 01:46:58 10° SW 01:56:09 74° SE 02:05:17 10° ENE visible
19 Nov - 03:52:31 10° W 04:01:17 48° NNW 04:10:10 10° NE visible
19 Nov - 05:59:27 10° WNW 06:07:52 38° N 06:16:28 10° ENE visible
19 Nov - 08:04:48 10° NW 08:14:02 65° NNE 08:23:35 10° ESE daylight
19 Nov - 10:09:46 10° WNW 10:18:35 46° SW 10:27:43 10° SSE daylight
19 Nov - 23:22:29 10° SSE 23:27:34 16° SE 23:32:35 10° E night (unlit)
20 Nov - 01:21:53 10° SW 01:31:01 68° SE 01:40:06 10° ENE visible
20 Nov - 03:27:11 10° W 03:36:02 50° NNW 03:44:58 10° NE visible
20 Nov - 05:34:11 10° WNW 05:42:34 37° N 05:51:06 10° ENE visible
20 Nov - 07:39:39 10° NW 07:48:49 61° NNE 07:58:17 10° ESE daylight
20 Nov - 09:44:32 10° WNW 09:53:28 51° SW 10:02:44 10° SSE daylight
20 Nov - 22:58:19 10° SSE 23:02:32 14° ESE 23:06:41 10° E night (unlit)
21 Nov - 00:56:49 10° SW 01:05:55 63° SE 01:14:54 10° ENE visible
21 Nov - 03:01:52 10° W 03:10:48 52° NNW 03:19:45 10° NE visible
21 Nov - 05:08:53 10° WNW 05:17:14 37° N 05:25:45 10° ENE visible
21 Nov - 07:14:29 10° NW 07:23:35 58° NNE 07:32:57 10° ESE daylight
21 Nov - 09:19:19 10° WNW 09:28:21 55° SW 09:37:43 10° SSE daylight
21 Nov - 11:29:04 10° WSW 11:31:44 11° WSW 11:34:26 10° SW daylight
21 Nov - 22:34:32 10° SE 22:37:29 12° ESE 22:40:25 10° ESE night (unlit)
22 Nov - 00:31:47 10° SSW 00:40:48 57° SE 00:49:42 10° ENE visible
22 Nov - 02:36:34 10° WSW 02:45:34 55° NNW 02:54:34 10° NE visible
22 Nov - 04:43:35 10° WNW 04:51:56 37° N 05:00:23 10° ENE visible
22 Nov - 06:49:19 10° NW 06:58:21 55° NNE 07:07:37 10° E daylight
22 Nov - 08:54:07 10° WNW 09:03:14 60° SW 09:12:40 10° SSE daylight
22 Nov - 11:02:39 10° W 11:06:41 13° WSW 11:10:48 10° SSW daylight
23 Nov - 00:06:46 10° SSW 00:15:42 52° SE 00:24:29 10° ENE night (unlit)
23 Nov - 02:11:17 10° WSW 02:20:20 58° NNW 02:29:23 10° NE visible
23 Nov - 04:18:17 10° WNW 04:26:37 37° N 04:35:04 10° ENE visible
23 Nov - 06:24:09 10° NW 06:33:06 52° NNE 06:42:16 10° E daylight
23 Nov - 08:28:55 10° WNW 08:38:06 65° SW 08:47:35 10° SE daylight
23 Nov - 10:36:39 10° W 10:41:38 15° SW 10:46:41 10° SSW daylight
23 Nov - 23:41:48 10° SSW 23:50:36 48° SE 23:59:15 10° ENE night (unlit)
24 Nov - 01:46:00 10° WSW 01:55:07 62° NNW 02:04:13 10° NE visible
24 Nov - 03:52:57 10° WNW 04:01:19 37° N 04:09:45 10° ENE visible
24 Nov - 05:58:58 10° NW 06:07:51 49° NNE 06:16:55 10° E visible
24 Nov - 08:03:45 10° WNW 08:12:58 71° SW 08:22:29 10° SE daylight
24 Nov - 10:10:54 10° W 10:16:34 18° SW 10:22:23 10° SSW daylight
24 Nov - 23:16:51 10° SSW 23:25:31 44° SE 23:34:00 10° ENE night (unlit)
25 Nov - 01:20:43 10° WSW 01:29:56 66° NNW 01:39:03 10° NE visible
25 Nov - 03:27:37 10° WNW 03:36:01 38° N 03:44:27 10° ENE visible
25 Nov - 05:33:47 10° NW 05:42:36 47° NNE 05:51:33 10° E visible
25 Nov - 07:38:35 10° WNW 07:47:49 76° SW 07:57:22 10° SE daylight
25 Nov - 09:45:15 10° W 09:51:30 20° SW 09:57:55 10° SSW daylight
25 Nov - 22:51:57 10° SSW 23:00:26 40° SE 23:08:44 10° ENE night (unlit)
26 Nov - 00:55:27 10° WSW 01:04:43 70° NNW 01:13:53 10° NE visible
26 Nov - 03:02:17 10° WNW 03:10:43 38° N 03:19:10 10° ENE visible
26 Nov - 05:08:35 10° NW 05:17:20 45° NNE 05:26:12 10° E visible
26 Nov - 07:13:25 10° NW 07:22:40 82° SW 07:32:13 10° SE daylight
26 Nov - 09:19:43 10° W 09:26:27 23° SW 09:33:21 10° S daylight
26 Nov - 22:27:04 10° SSW 22:35:21 36° SE 22:43:27 10° ENE night (unlit)
27 Nov - 00:30:13 10° WSW 00:39:32 74° NNW 00:48:44 10° NE visible
27 Nov - 02:36:56 10° WNW 02:45:24 39° N 02:53:54 10° ENE visible
27 Nov - 04:43:24 10° NW 04:52:03 43° NNE 05:00:49 10° E visible
27 Nov - 06:48:15 10° NW 06:57:31 87° SW 07:07:03 10° SE daylight
27 Nov - 08:54:15 10° WNW 09:01:23 25° SW 09:08:42 10° S daylight
27 Nov - 22:02:13 10° S 22:10:17 33° SE 22:18:08 10° ENE night (unlit)
